Lübeck Blankensee Airport

Jump to: basic info | weather | frequencies | runways | comments

Related pages: nearby airports | nearby navaids | notams | map

Basic information (top)

Codes: LBC EDHL
Location: lon 53.805401, lat 10.719200, elev 53 ft / 16 m msl
Status: medium_airport
Scheduled airline service: yes
Links: Wikipedia Mobile

Weather (top)

Current conditions (rec'd 2014/09/01 10:50Z):

EDHL 011050Z 26004KT 210V290 9999 SCT011 SCT025 17/16 Q1017 RMK ATIS PAP

Airport forecast for Hamburg Airport 28nm (52km) WSW (rec'd 2014/09/01 06:27Z):

TAF EDDH 010500Z 0106/0212 31005KT 0300 FG OVC001 
      BECMG 0106/0108 2500 BCFG BKN005 
      BECMG 0108/0111 9999 BKN020 PROB30 
      TEMPO 0112/0115 SHRA BKN012TCU 
      BECMG 0118/0121 4000 BR BKN007 
      BECMG 0123/0202 05005KT 
      TEMPO 0123/0207 1200 MIFG BKN002 
      BECMG 0207/0210 9999 BKN020

Frequencies (top)

Verify before use: may be inaccurate or out of date.

AFIS: 125.1 MHz (BREMEN INFO)
ATIS: 119.925 MHz (ATIS)
GND: 121.775 MHz (GND)
INFO: 128.7 MHz (INFO)
RDR: 124.225 MHz (BREMEN RADAR)
TWR: 128.7 MHz (TWR)

Runways (top)

07/25: 6,896 x 197 ft (2,102 x 60 m) — paved — lighted — threshold 07 displaced 984 ft (300 m)

Latest comments (top)

No comments yet for Lübeck Blankensee Airport

More... (top)

See also NOTAMs and nearby airports and navaids, or visit the Lübeck Blankensee Airport page at the main OurAirports website..